Big Piney, WY

8:04 AM MST on February 09, 2016 (GMT -0700)
Big Piney-Marbleton

Weather History for KBPI - September, 2012

Change the Weather History Date:

Saturday, September 29, 2012

  Actual Average Record
Temperature  
Mean Temperature 52 °F 45 °F  
Max Temperature 70 °F 63 °F 78 °F (2010)
Min Temperature 37 °F 27 °F 11 °F (1999)
Degree Days  
Heating Degree Days 12 20  
Month to date heating degree days 437  
Since 1 July heating degree days 730  
Cooling Degree Days 0 0  
Month to date cooling degree days 0  
Year to date cooling degree days 35  
Growing Degree Days 2 (Base 50)    
Moisture  
Dew Point 33 °F    
Average Humidity 55    
Maximum Humidity 86    
Minimum Humidity 25    
Precipitation  
Precipitation 0.00 in 0.03 in 0.20 in (1991)
Month to date precipitation 0.76  
Year to date precipitation 5.42  
Sea Level Pressure  
Sea Level Pressure 30.10 in    
Wind  
Wind Speed 6 mph (North)    
Max Wind Speed 16 mph    
Max Gust Speed 28 mph    
Visibility 10 miles    
Events      
T = Trace of Precipitation, MM = Missing Value Source: NWS Daily Summary

Daily Weather History Graph

Daily Weather History Graph

Search for Another Location

Airport or City:

Trip Planner

Search our weather history database for the weather conditions in past years. The results will help you decide how hot, cold, wet, or windy it might be!

Date:

Astronomy

Sep. 29, 2012 Rise Set
Actual Time 7:16 AM MDT 7:04 PM MDT
Civil Twilight 6:47 AM MDT 7:32 PM MDT
Nautical Twilight 6:15 AM MDT 8:05 PM MDT
Astronomical Twilight 5:41 AM MDT 8:38 PM MDT
Moon 6:37 PM MDT (9/29) 6:51 AM MDT (9/29)
Length of Visible Light 12h 44m
Length of Day
11h 48m
Full, 100% of the Moon is Illuminated
Sep 29
Full
Sep 29
Full
Oct 8
Last Quarter
Oct 15
New
Oct 21
First Quarter

Hourly Weather History & Observations

Time (MDT) Temp. Windchill Dew Point Humidity Pressure Visibility Wind Dir Wind Speed Gust Speed Precip Events Conditions
12:53 AM 44.1 °F 42.5 °F 36.0 °F 73% 30.02 in 10.0 mi ENE 3.5 mph - N/A   Overcast
1:53 AM 42.1 °F 38.4 °F 34.0 °F 73% 30.03 in 10.0 mi ENE 5.8 mph - N/A   Scattered Clouds
2:53 AM 42.1 °F - 33.1 °F 70% 30.05 in 10.0 mi Calm Calm - N/A   Clear
3:53 AM 37.9 °F - 32.0 °F 79% 30.05 in 10.0 mi Calm Calm - N/A   Clear
4:53 AM 37.0 °F - 32.0 °F 82% 30.05 in 10.0 mi Calm Calm - N/A   Clear
5:53 AM 37.9 °F 35.5 °F 34.0 °F 86% 30.05 in 10.0 mi ESE 3.5 mph - N/A   Clear
6:53 AM 37.9 °F 35.5 °F 34.0 °F 86% 30.10 in 10.0 mi NNW 3.5 mph - N/A   Clear
7:53 AM 39.9 °F 36.7 °F 35.1 °F 83% 30.12 in 10.0 mi South 4.6 mph - N/A   Mostly Cloudy
8:53 AM 41.0 °F 38.0 °F 34.0 °F 76% 30.14 in 10.0 mi South 4.6 mph - N/A   Clear
9:53 AM 48.9 °F - 36.0 °F 61% 30.14 in 10.0 mi ESE 3.5 mph - N/A   Mostly Cloudy
10:53 AM 55.9 °F - 35.1 °F 45% 30.12 in 10.0 mi East 5.8 mph - N/A   Overcast
11:53 AM 63.0 °F - 34.0 °F 34% 30.09 in 10.0 mi NNW 6.9 mph - N/A   Overcast
12:53 PM 66.0 °F - 30.9 °F 27% 30.06 in 10.0 mi NW 16.1 mph 23.0 mph N/A   Mostly Cloudy
1:53 PM 66.9 °F - 30.9 °F 26% 30.05 in 10.0 mi WNW 11.5 mph 23.0 mph N/A   Mostly Cloudy
2:53 PM 68.0 °F - 30.9 °F 25% 30.04 in 10.0 mi NNW 15.0 mph 27.6 mph N/A   Mostly Cloudy
3:53 PM 66.0 °F - 30.9 °F 27% 30.06 in 10.0 mi NNW 12.7 mph - N/A   Overcast
4:53 PM 66.0 °F - 30.9 °F 27% 30.06 in 10.0 mi NW 12.7 mph - N/A   Mostly Cloudy
5:53 PM 63.0 °F - 32.0 °F 31% 30.07 in 10.0 mi NNW 12.7 mph 18.4 mph N/A   Partly Cloudy
6:53 PM 60.8 °F - 32.0 °F 34% 30.27 in 10.0 mi NNW 11.5 mph - N/A   Clear
7:53 PM 52.0 °F - 33.1 °F 49% 30.16 in 10.0 mi NNW 8.1 mph - N/A   Clear
8:53 PM 51.1 °F - 33.1 °F 50% 30.17 in 10.0 mi NNW 11.5 mph - N/A   Clear
9:53 PM 50.0 °F - 34.0 °F 54% 30.16 in 10.0 mi NNW 11.5 mph - N/A   Clear
10:53 PM 48.0 °F - 33.1 °F 56% 30.16 in 10.0 mi North 6.9 mph - N/A   Clear
11:53 PM 44.1 °F 42.5 °F 32.0 °F 63% 30.15 in 10.0 mi ENE 3.5 mph - N/A   Clear